DW5686 Weather Reports


Display with metric or nautical units.
time (UTC)temp
F
wind
direction
speed
MPH
gust
MPH
rain 1hr
in
rain 24hr
in
rain mn
in
humidity
%
barometer
mb
20260901180002 94 7 2.0 9.0 0.00 0.00 0.00 48 1018.6
20260901175524 94 2 4.0 7.0 0.00 0.00 0.00 47 1018.7
20260901175004 94 300 2.0 5.0 0.00 0.00 0.00 44 1018.7
20260901174503 94 141 2.0 5.0 0.00 0.00 0.00 42 1018.8
20260901174024 94 189 3.0 6.0 0.00 0.00 0.00 42 1018.8
20260901173503 93 223 2.0 6.0 0.00 0.00 0.00 50 1018.9
20260901173024 92 215 3.0 6.0 0.00 0.00 0.00 47 1018.9
20260901172525 91 299 2.0 7.0 0.00 0.00 0.00 52 1019.0
20260901172004 90 9 3.0 8.0 0.00 0.00 0.00 50 1019.0
20260901171504 91 265 1.0 8.0 0.00 0.00 0.00 48 1019.1
20260901171003 92 12 3.0 10.0 0.00 0.00 0.00 49 1019.1
20260901170503 92 17 6.0 10.0 0.00 0.00 0.00 48 1019.1
20260901170002 92 25 3.0 9.0 0.00 0.00 0.00 47 1019.1
20260901165503 92 150 3.0 6.0 0.00 0.00 0.00 51 1019.1
20260901165004 92 318 2.0 6.0 0.00 0.00 0.00 50 1019.3
20260901164524 92 347 1.0 6.0 0.00 0.00 0.00 49 1019.4
20260901164003 92 17 2.0 5.0 0.00 0.00 0.00 49 1019.3
20260901163503 92 9 1.0 3.0 0.00 0.00 0.00 50 1019.5
20260901163004 91 181 1.0 7.0 0.00 0.00 0.00 49 1019.5
20260901162525 91 186 2.0 7.0 0.00 0.00 0.00 52 1019.5
20260901162003 91 203 4.0 7.0 0.00 0.00 0.00 50 1019.6
20260901161503 91 232 2.0 7.0 0.00 0.00 0.00 55 1019.6
20260901161003 90 344 1.0 7.0 0.00 0.00 0.00 56 1019.6
20260901160504 89 33 4.0 9.0 0.00 0.00 0.00 55 1019.6
20260901160003 91 28 3.0 9.0 0.00 0.00 0.00 53 1019.6
20260901155504 91 124 1.0 7.0 0.00 0.00 0.00 50 1019.8
20260901155004 91 180 2.0 7.0 0.00 0.00 0.00 52 1019.7
20260901154503 91 198 3.0 5.0 0.00 0.00 0.00 53 1019.7
20260901154003 92 244 1.0 5.0 0.00 0.00 0.00 55 1019.8
20260901153502 91 244 2.0 5.0 0.00 0.00 0.00 55 1019.9
20260901153002 91 216 0.0 4.0 0.00 0.00 0.00 59 1019.9
20260901152503 90 192 2.0 5.0 0.00 0.00 0.00 57 1019.9
20260901152003 89 190 2.0 6.0 0.00 0.00 0.00 58 1019.9
20260901151503 89 1 1.0 6.0 0.00 0.00 0.00 58 1019.9
20260901151004 88 320 1.0 5.0 0.00 0.00 0.00 58 1020.0
20260901150504 88 342 2.0 6.0 0.00 0.00 0.00 60 1020.0
20260901150003 87 346 2.0 7.0 0.00 0.00 0.00 60 1020.0
20260901145503 86 4 3.0 7.0 0.00 0.00 0.00 61 1020.0
20260901145004 87 13 4.0 7.0 0.00 0.00 0.00 61 1020.0
20260901144503 87 3 1.0 8.0 0.00 0.00 0.00 63 1020.0
20260901144003 87 11 5.0 8.0 0.00 0.00 0.00 61 1020.0
20260901143504 86 184 1.0 4.0 0.00 0.00 0.00 63 1020.1
20260901143003 86 184 2.0 5.0 0.00 0.00 0.00 63 1020.1
20260901142524 86 186 1.0 5.0 0.00 0.00 0.00 65 1020.1
20260901142003 86 260 2.0 5.0 0.00 0.00 0.00 65 1020.1
20260901141504 85 256 2.0 4.0 0.00 0.00 0.00 67 1020.0
20260901141003 85 352 2.0 3.0 0.00 0.00 0.00 70 1019.9
20260901140504 84 352 0.0 3.0 0.00 0.00 0.00 69 1019.9
20260901140025 83 352 1.0 4.0 0.00 0.00 0.00 70 1019.9
20260901135504 83 349 2.0 4.0 0.00 0.00 0.00 70 1019.9
20260901135003 83 306 2.0 5.0 0.00 0.00 0.00 71 1020.0
20260901134503 82 27 1.0 5.0 0.00 0.00 0.00 74 1020.0
20260901134003 81 8 3.0 7.0 0.00 0.00 0.00 75 1019.9
20260901133503 80 359 3.0 7.0 0.00 0.00 0.00 76 1019.8
20260901133003 80 9 2.0 4.0 0.00 0.00 0.00 77 1019.9
20260901132503 80 1 1.0 6.0 0.00 0.00 0.00 76 1020.0
20260901132025 79 5 2.0 6.0 0.00 0.00 0.00 77 1020.0
20260901131503 79 8 1.0 2.0 0.00 0.00 0.00 78 1019.9
20260901131025 78 8 2.0 3.0 0.00 0.00 0.00 81 1020.0
20260901130503 78 7 1.0 3.0 0.00 0.00 0.00 83 1019.9
20260901130003 77 7 2.0 2.0 0.00 0.00 0.00 82 1020.0
20260901125504 77 7 1.0 2.0 0.00 0.00 0.00 83 1019.9
20260901125024 77 7 0.0 2.0 0.00 0.00 0.00 84 1019.9
20260901124504 76 7 1.0 3.0 0.00 0.00 0.00 84 1019.9
20260901124004 76 7 1.0 5.0 0.00 0.00 0.00 86 1019.9
20260901123504 75 8 3.0 5.0 0.00 0.00 0.00 86 1019.9
20260901123003 75 20 1.0 3.0 0.00 0.00 0.00 87 1019.9
20260901122503 74 20 1.0 2.0 0.00 0.00 0.00 89 1019.9
20260901122003 74 0 0.0 1.0 0.00 0.00 0.00 89 1019.8
20260901121525 74 20 0.0 2.0 0.00 0.00 0.00 91 1019.8
20260901121004 73 20 1.0 3.0 0.00 0.00 0.00 91 1019.7
20260901120504 73 137 2.0 3.0 0.00 0.00 0.00 92 1019.7
20260901120004 73 0 0.0 1.0 0.00 0.00 0.00 92 1019.7
20260901115504 72 163 0.0 1.0 0.00 0.00 0.00 92 1019.6
20260901115003 72 163 0.0 1.0 0.00 0.00 0.00 92 1019.5
20260901114503 72 0 0.0 2.0 0.00 0.00 0.00 92 1019.3
20260901114004 72 163 0.0 2.0 0.00 0.00 0.00 92 1019.4
20260901113504 72 163 1.0 2.0 0.00 0.00 0.00 93 1019.3
20260901113003 72 163 0.0 2.0 0.00 0.00 0.00 93 1019.1
20260901112504 72 163 0.0 2.0 0.00 0.00 0.00 93 1019.1
20260901112004 72 163 0.0 2.0 0.00 0.00 0.00 93 1019.0
20260901111504 72 163 0.0 2.0 0.00 0.00 0.00 93 1019.0
20260901111003 72 163 1.0 2.0 0.00 0.00 0.00 92 1018.9
20260901110504 72 163 0.0 1.0 0.00 0.00 0.00 92 1018.9
20260901110003 72 0 0.0 1.0 0.00 0.00 0.00 93 1018.8
20260901105504 72 0 0.0 1.0 0.00 0.00 0.00 93 1018.7
20260901105003 72 163 0.0 2.0 0.00 0.00 0.00 93 1018.6
20260901104504 72 163 0.0 2.0 0.00 0.00 0.00 92 1018.6
20260901104025 72 163 1.0 2.0 0.00 0.00 0.00 92 1018.5
20260901103503 72 0 0.0 1.0 0.00 0.00 0.00 92 1018.5
20260901103004 72 0 0.0 0.0 0.00 0.00 0.00 92 1018.5
20260901102503 72 0 0.0 0.0 0.00 0.00 0.00 92 1018.6
20260901102024 72 0 0.0 1.0 0.00 0.00 0.00 92 1018.6
20260901101524 72 0 0.0 2.0 0.00 0.00 0.00 92 1018.7
20260901101003 72 163 0.0 2.0 0.00 0.00 0.00 92 1018.5
20260901100503 72 0 0.0 2.0 0.00 0.00 0.00 92 1018.6
20260901100004 72 163 0.0 2.0 0.00 0.00 0.00 92 1018.4
20260901095524 72 0 0.0 2.0 0.00 0.00 0.00 92 1018.4
20260901095003 72 163 0.0 5.0 0.00 0.00 0.00 92 1018.4
20260901094503 72 163 1.0 5.0 0.00 0.00 0.00 92 1018.4
20260901094004 72 161 2.0 4.0 0.00 0.00 0.00 92 1018.4
20260901093503 72 161 2.0 3.0 0.00 0.00 0.00 92 1018.5
20260901093003 72 161 0.0 1.0 0.00 0.00 0.00 92 1018.5
20260901092524 72 161 0.0 1.0 0.00 0.00 0.00 92 1018.5
20260901092003 72 0 0.0 0.0 0.00 0.00 0.00 92 1018.7
20260901091504 72 0 0.0 0.0 0.00 0.00 0.00 92 1018.6
20260901091004 72 0 0.0 0.0 0.00 0.00 0.00 92 1018.6
20260901090503 72 0 0.0 0.0 0.00 0.00 0.00 92 1018.6
20260901090025 72 0 0.0 0.0 0.00 0.00 0.00 92 1018.5
20260901085525 73 0 0.0 0.0 0.00 0.00 0.00 92 1018.5
20260901085025 73 0 0.0 2.0 0.00 0.00 0.00 92 1018.5
20260901084504 73 161 1.0 2.0 0.00 0.00 0.00 92 1018.6
20260901084003 73 161 1.0 2.0 0.00 0.00 0.00 92 1018.7
20260901083503 73 161 2.0 2.0 0.00 0.00 0.00 92 1018.7
20260901083003 73 161 1.0 2.0 0.00 0.00 0.00 92 1018.8
20260901082524 73 161 0.0 2.0 0.00 0.00 0.00 92 1018.8
20260901082004 73 161 1.0 2.0 0.00 0.00 0.00 92 1018.8
20260901081503 73 161 1.0 2.0 0.00 0.00 0.00 92 1018.9
20260901081003 73 0 0.0 0.0 0.00 0.00 0.00 92 1018.9
20260901080504 73 0 0.0 0.0 0.00 0.00 0.00 92 1018.8
20260901080024 73 0 0.0 0.0 0.00 0.00 0.00 92 1018.8
20260901075503 73 0 0.0 1.0 0.00 0.00 0.00 92 1018.7
20260901075004 73 161 0.0 1.0 0.00 0.00 0.00 92 1018.9
20260901074504 73 0 0.0 1.0 0.00 0.00 0.00 92 1018.9
20260901074003 74 161 0.0 2.0 0.00 0.00 0.00 91 1018.8
20260901073504 74 161 1.0 2.0 0.00 0.00 0.00 92 1018.8
20260901073004 74 0 0.0 1.0 0.00 0.00 0.00 92 1018.8
20260901072504 74 0 0.0 1.0 0.00 0.00 0.00 91 1018.9
20260901072003 74 0 0.0 0.0 0.00 0.00 0.00 91 1019.0
20260901071502 74 0 0.0 0.0 0.00 0.00 0.00 91 1019.0
20260901071002 74 0 0.0 2.0 0.00 0.00 0.00 91 1019.0
20260901070524 74 0 0.0 2.0 0.00 0.00 0.00 91 1019.0
20260901070002 74 0 0.0 1.0 0.00 0.00 0.00 91 1019.2
20260901065503 74 161 0.0 1.0 0.00 0.00 0.00 89 1019.1
20260901065002 74 0 0.0 0.0 0.00 0.00 0.00 89 1019.1
20260901064502 74 0 0.0 2.0 0.00 0.00 0.00 89 1019.1
20260901064003 74 161 1.0 3.0 0.00 0.00 0.00 89 1019.1
20260901063523 74 161 1.0 3.0 0.00 0.00 0.00 89 1019.2
20260901063003 74 161 2.0 3.0 0.00 0.00 0.00 89 1019.1
20260901062503 74 161 2.0 2.0 0.00 0.00 0.00 89 1019.1
20260901062003 74 0 0.0 1.0 0.00 0.00 0.00 91 1019.0
20260901061503 74 0 0.0 0.0 0.00 0.00 0.00 89 1019.1
20260901061023 74 0 0.0 0.0 0.00 0.00 0.00 89 1019.0
20260901060503 74 0 0.0 0.0 0.00 0.00 0.00 89 1019.2
20260901060002 74 0 0.0 1.0 0.00 0.00 0.00 89 1019.1
20260901055503 74 161 0.0 1.0 0.00 0.00 0.00 89 1019.2
20260901055002 74 0 0.0 0.0 0.00 0.00 0.00 89 1019.3
20260901054502 74 0 0.0 0.0 0.00 0.00 0.00 88 1019.2
20260901054023 75 0 0.0 0.0 0.00 0.00 0.00 88 1019.2
20260901053503 75 0 0.0 0.0 0.00 0.00 0.00 88 1019.2
20260901053002 75 0 0.0 2.0 0.00 0.00 0.00 88 1019.3
20260901052502 75 161 0.0 2.0 0.00 0.00 0.00 87 1019.3
20260901052002 75 161 2.0 2.0 0.00 0.00 0.00 87 1019.2
20260901051503 75 161 0.0 2.0 0.00 0.00 0.00 87 1019.2
20260901051003 75 161 1.0 2.0 0.00 0.00 0.00 87 1019.3
20260901050502 75 0 0.0 0.0 0.00 0.00 0.00 87 1019.3
20260901050023 75 0 0.0 0.0 0.00 0.00 0.00 87 1019.4
20260901045502 75 0 0.0 1.0 0.00 0.00 0.00 87 1019.4
20260901045003 76 0 0.0 2.0 0.00 0.00 0.00 86 1019.4
20260901044502 76 161 0.0 2.0 0.00 0.00 0.00 86 1019.4
20260901044024 76 161 1.0 3.0 0.00 0.00 0.00 86 1019.3
20260901043502 76 161 1.0 3.0 0.00 0.00 0.00 86 1019.3
20260901043002 76 161 1.0 2.0 0.00 0.00 0.00 86 1019.2
20260901042502 76 0 0.0 1.0 0.00 0.00 0.00 86 1019.2
20260901042002 76 0 0.0 2.0 0.00 0.00 0.00 86 1019.1
20260901041524 76 161 1.0 2.0 0.00 0.00 0.00 84 1019.2
20260901041002 76 161 0.0 2.0 0.00 0.00 0.00 84 1019.1
20260901040502 76 161 1.0 2.0 0.00 0.00 0.00 84 1019.1
20260901040003 76 161 0.0 2.0 0.00 0.00 0.00 84 1019.1
20260901035504 76 161 2.0 2.0 0.00 0.00 0.00 84 1019.1
20260901035003 76 0 0.0 0.0 0.00 0.00 0.00 84 1019.1
20260901034503 76 0 0.0 0.0 0.00 0.00 0.00 84 1019.2
20260901034004 76 0 0.0 0.0 0.00 0.00 0.00 84 1019.3
20260901033502 77 0 0.0 0.0 0.00 0.00 0.00 84 1019.3
20260901033002 77 0 0.0 1.0 0.00 0.00 0.00 83 1019.2
20260901032503 77 161 0.0 1.0 0.00 0.00 0.00 83 1019.2
20260901032002 77 161 0.0 1.0 0.00 0.00 0.00 83 1019.2
20260901031503 77 161 0.0 3.0 0.00 0.00 0.00 83 1019.1
20260901031003 77 161 1.0 3.0 0.00 0.00 0.00 82 1019.1
20260901030502 77 0 0.0 1.0 0.00 0.00 0.00 82 1019.0
20260901030003 78 161 0.0 1.0 0.00 0.00 0.00 81 1019.2
20260901025504 78 0 0.0 3.0 0.00 0.00 0.00 81 1019.3
20260901025023 78 161 0.0 5.0 0.00 0.00 0.00 81 1019.3
20260901024503 78 162 2.0 5.0 0.00 0.00 0.00 81 1019.4
20260901024002 78 166 1.0 2.0 0.00 0.00 0.00 79 1019.5
20260901023503 78 0 0.0 0.0 0.00 0.00 0.00 79 1019.4
20260901023024 78 0 0.0 0.0 0.00 0.00 0.00 79 1019.4
20260901022502 78 0 0.0 1.0 0.00 0.00 0.00 78 1019.4
20260901022003 79 166 0.0 1.0 0.00 0.00 0.00 78 1019.3
20260901021503 79 0 0.0 2.0 0.00 0.00 0.00 78 1019.3
20260901021003 79 166 1.0 2.0 0.00 0.00 0.00 77 1019.3
20260901020523 79 166 2.0 2.0 0.00 0.00 0.00 77 1019.2
20260901020002 79 166 0.0 1.0 0.00 0.00 0.00 77 1019.1
20260901015502 79 0 0.0 1.0 0.00 0.00 0.00 77 1019.0
20260901015003 78 0 0.0 1.0 0.00 0.00 0.00 77 1019.0
20260901014502 78 166 0.0 1.0 0.00 0.00 0.00 76 1018.8
20260901014023 78 0 0.0 1.0 0.00 0.00 0.00 77 1018.7
20260901013503 79 0 0.0 0.0 0.00 0.00 0.00 76 1018.7
20260901013002 79 0 0.0 1.0 0.00 0.00 0.00 76 1018.7
20260901012504 79 0 0.0 1.0 0.00 0.00 0.00 75 1018.5
20260901012002 79 166 0.0 1.0 0.00 0.00 0.00 75 1018.5
20260901011502 79 0 0.0 0.0 0.00 0.00 0.00 74 1018.5
20260901011003 79 0 0.0 0.0 0.00 0.00 0.00 74 1018.4
20260901010503 79 0 0.0 1.0 0.00 0.00 0.00 72 1018.4
20260901010003 80 0 0.0 1.0 0.00 0.00 0.00 71 1018.3
20260901005502 80 0 0.0 0.0 0.00 0.00 0.00 71 1018.3
20260901005003 80 0 0.0 1.0 0.00 0.00 0.00 70 1018.2
20260901004503 80 0 0.0 2.0 0.00 0.00 0.00 70 1018.2
20260901004002 81 166 1.0 2.0 0.00 0.00 0.00 69 1018.1
20260901003524 81 0 0.0 1.0 0.00 0.00 0.00 69 1018.0
20260901003004 81 166 0.0 2.0 0.00 0.00 0.00 68 1018.0
20260901002502 82 166 1.0 2.0 0.00 0.00 0.00 68 1017.9
20260901002003 82 166 0.0 2.0 0.00 0.00 0.00 67 1018.0
20260901001502 82 166 1.0 2.0 0.00 0.00 0.00 67 1017.9
20260901001024 82 166 1.0 2.0 0.00 0.00 0.00 67 1017.9
20260901000502 82 166 2.0 2.0 0.00 0.00 0.00 67 1018.0
20260901000003 82 166 2.0 2.0 0.00 0.00 0.00 65 1017.9
20260831235504 83 166 0.0 2.0 0.00 0.00 0.00 65 1017.9
20260831235002 83 0 0.0 0.0 0.00 0.00 0.00 64 1017.9
20260831234503 83 0 0.0 0.0 0.00 0.00 0.00 64 1017.8
20260831234002 84 0 0.0 0.0 0.00 0.00 0.00 63 1017.9
20260831233502 84 0 0.0 0.0 0.00 0.00 0.00 62 1017.9
20260831233002 84 0 0.0 0.0 0.00 0.00 0.00 62 1018.0
20260831232502 85 0 0.0 0.0 0.00 0.00 0.00 61 1017.9
20260831232003 85 0 0.0 0.0 0.00 0.00 0.00 61 1018.0
20260831231504 86 0 0.0 2.0 0.00 0.00 0.00 59 1018.1
20260831231003 86 166 1.0 2.0 0.00 0.00 0.00 57 1018.1
20260831230503 86 166 0.0 1.0 0.00 0.00 0.00 58 1018.1
20260831230003 86 0 0.0 0.0 0.00 0.00 0.00 58 1018.1
20260831225502 86 0 0.0 2.0 0.00 0.00 0.00 56 1018.1
20260831225002 86 166 0.0 2.0 0.00 0.00 0.00 57 1018.1
20260831224503 86 0 0.0 1.0 0.00 0.00 0.00 58 1018.1
20260831224023 87 166 0.0 2.0 0.00 0.00 0.00 57 1018.3
20260831223504 88 166 1.0 2.0 0.00 0.00 0.00 56 1018.4
20260831223002 88 166 0.0 6.0 0.00 0.00 0.00 50 1018.3
20260831222503 88 159 3.0 6.0 0.00 0.00 0.00 51 1018.4
20260831222004 88 156 0.0 5.0 0.00 0.00 0.00 50 1018.4
20260831221503 89 156 3.0 5.0 0.00 0.00 0.00 49 1018.4
20260831221003 89 156 0.0 4.0 0.00 0.00 0.00 50 1018.3
20260831220504 89 150 1.0 5.0 0.00 0.00 0.00 51 1018.2
20260831220003 89 160 2.0 5.0 0.00 0.00 0.00 51 1018.3
20260831215502 89 176 2.0 6.0 0.00 0.00 0.00 51 1018.3
20260831215003 89 94 1.0 9.0 0.00 0.00 0.00 51 1018.3
20260831214502 89 35 6.0 9.0 0.00 0.00 0.00 50 1018.5
20260831214002 90 27 3.0 6.0 0.00 0.00 0.00 52 1018.4
20260831213502 90 23 2.0 5.0 0.00 0.00 0.00 51 1018.5
20260831213025 91 26 2.0 5.0 0.00 0.00 0.00 50 1018.4
20260831212503 92 33 2.0 9.0 0.00 0.00 0.00 49 1018.4
20260831212002 92 12 6.0 9.0 0.00 0.00 0.00 47 1018.3
20260831211525 92 15 3.0 7.0 0.00 0.00 0.00 50 1018.4
20260831211024 92 267 1.0 5.0 0.00 0.00 0.00 50 1018.5
20260831210503 92 265 3.0 10.0 0.00 0.00 0.00 47 1018.4
20260831210024 92 239 1.0 11.0 0.00 0.00 0.00 47 1018.6
20260831205502 92 13 5.0 11.0 0.00 0.00 0.00 46 1018.5
20260831205003 92 30 5.0 12.0 0.00 0.00 0.00 49 1018.6
20260831204504 92 37 6.0 12.0 0.00 0.00 0.00 47 1018.5
20260831204002 92 11 2.0 11.0 0.00 0.00 0.00 45 1018.5
20260831203524 92 7 2.0 11.0 0.00 0.00 0.00 46 1018.6
20260831203002 94 13 5.0 10.0 0.00 0.00 0.00 44 1018.7
20260831202503 93 353 1.0 6.0 0.00 0.00 0.00 47 1018.7
20260831202003 93 325 2.0 8.0 0.00 0.00 0.00 45 1018.8
20260831201503 94 200 4.0 8.0 0.00 0.00 0.00 46 1018.8
20260831201025 94 182 1.0 8.0 0.00 0.00 0.00 46 1018.7
20260831200502 93 138 3.0 8.0 0.00 0.00 0.00 45 1018.8
20260831200025 93 199 4.0 7.0 0.00 0.00 0.00 45 1018.9
20260831195503 92 338 1.0 7.0 0.00 0.00 0.00 49 1019.0
20260831195002 92 3 5.0 10.0 0.00 0.00 0.00 46 1019.1
20260831194503 92 353 3.0 10.0 0.00 0.00 0.00 46 1019.1
20260831194003 93 233 3.0 6.0 0.00 0.00 0.00 48 1019.1
20260831193503 93 350 1.0 7.0 0.00 0.00 0.00 50 1019.1
20260831193004 94 222 4.0 7.0 0.00 0.00 0.00 47 1019.2
20260831192502 93 179 2.0 7.0 0.00 0.00 0.00 50 1019.2
20260831192003 93 222 3.0 7.0 0.00 0.00 0.00 48 1019.3
20260831191502 92 224 2.0 6.0 0.00 0.00 0.00 50 1019.3
20260831191003 92 204 3.0 9.0 0.00 0.00 0.00 50 1019.2
20260831190503 92 208 4.0 9.0 0.00 0.00 0.00 47 1019.3
20260831190003 92 227 4.0 9.0 0.00 0.00 0.00 50 1019.2
20260831185504 91 184 4.0 10.0 0.00 0.00 0.00 49 1019.3
20260831185003 92 171 6.0 10.0 0.00 0.00 0.00 53 1019.5
20260831184503 91 173 3.0 6.0 0.00 0.00 0.00 55 1019.5
20260831184003 90 170 3.0 7.0 0.00 0.00 0.00 55 1019.5
20260831183502 89 151 2.0 7.0 0.00 0.00 0.00 58 1019.6
20260831183004 89 151 2.0 6.0 0.00 0.00 0.00 55 1019.7
20260831182504 89 148 3.0 5.0 0.00 0.00 0.00 55 1019.8
20260831182024 89 342 0.0 5.0 0.00 0.00 0.00 53 1019.8
20260831181503 90 5 2.0 8.0 0.00 0.00 0.00 52 1019.8
20260831181003 89 9 5.0 9.0 0.00 0.00 0.00 58 1019.9
20260831180503 88 42 6.0 9.0 0.00 0.00 0.00 57 1019.9